Auckland Air Field, New Zealand

11:10 AM NZDT on December 07, 2016 (GMT +1300)
Auckland International

Weather History for NZAA - October, 2012

Change the Weather History Date:

Tuesday, October 9, 2012

  Actual Average Record
Temperature  
Mean Temperature 60 °F -  
Max Temperature 66 °F 61 °F 68 °F (1998)
Min Temperature 53 °F 51 °F 42 °F (2002)
Degree Days  
Heating Degree Days 6    
Growing Degree Days 10 (Base 50)    
Moisture  
Dew Point 52 °F    
Average Humidity 77    
Maximum Humidity 94    
Minimum Humidity 52    
Precipitation  
Precipitation 0.00 in - - ()
Sea Level Pressure  
Sea Level Pressure 29.88 in    
Wind  
Wind Speed 6 mph ()    
Max Wind Speed 15 mph    
Max Gust Speed -    
Visibility 6.1 miles    
Events      
Averages and records for this station are not official NWS values.
T = Trace of Precipitation, MM = Missing Value Source: Averaged Metar Reports

Daily Weather History Graph

Daily Weather History Graph

Search for Another Location

Airport or City:

Trip Planner

Search our weather history database for the weather conditions in past years. The results will help you decide how hot, cold, wet, or windy it might be!

Date:

Astronomy

Oct. 09, 2012 Rise Set
Actual Time 6:45 AM NZDT 7:31 PM NZDT
Civil Twilight 6:18 AM NZDT 7:58 PM NZDT
Nautical Twilight 5:47 AM NZDT 8:29 PM NZDT
Astronomical Twilight 5:15 AM NZDT 9:01 PM NZDT
Moon 2:25 AM NZDT (10/9) 12:53 PM NZDT (10/9)
Length of Visible Light 13h 39m
Length of Day
12h 46m
Last Quarter, 44% of the Moon is Illuminated
Oct 9
Last Quarter
Oct 16
New
Oct 22
First Quarter
Oct 30
Full
Nov 7
Last Quarter

Hourly Weather History & Observations

Time (NZDT) Temp. Dew Point Humidity Pressure Visibility Wind Dir Wind Speed Gust Speed Precip Events Conditions
12:00 AM 59.0 °F 55.4 °F 88% 29.83 in 6.2 mi NNE 3.5 mph - N/A   Partly Cloudy
1:00 AM 59.0 °F 55.4 °F 88% 29.83 in 6.2 mi North 4.6 mph - N/A   Overcast
2:00 AM 59.0 °F 55.4 °F 88% 29.83 in 6.2 mi NNW 4.6 mph - N/A   Mostly Cloudy
3:00 AM 59.0 °F 55.4 °F 88% 29.83 in 6.2 mi NW 5.8 mph - N/A   Partly Cloudy
4:00 AM 57.2 °F 55.4 °F 94% 29.83 in 6.2 mi NNW 5.8 mph - N/A   Partly Cloudy
5:00 AM 57.2 °F 53.6 °F 88% 29.83 in 6.2 mi NW 4.6 mph - N/A   Partly Cloudy
6:00 AM 55.4 °F 53.6 °F 94% 29.86 in 6.2 mi North 4.6 mph - N/A   Scattered Clouds
7:00 AM 53.6 °F 51.8 °F 94% 29.86 in 6.2 mi NNW 4.6 mph - N/A   Scattered Clouds
8:00 AM 57.2 °F 55.4 °F 94% 29.89 in 5.0 mi NNW 5.8 mph - N/A   Scattered Clouds
9:00 AM 59.0 °F 55.4 °F 88% 29.89 in 6.2 mi North 5.8 mph - N/A   Partly Cloudy
10:00 AM 62.6 °F 53.6 °F 72% 29.89 in 6.2 mi NNW 10.4 mph - N/A   Partly Cloudy
11:00 AM 62.6 °F 51.8 °F 68% 29.92 in 6.2 mi NW 10.4 mph - N/A   Scattered Clouds
12:00 PM 66.2 °F 51.8 °F 60% 29.89 in 6.2 mi WNW 13.8 mph - N/A   Scattered Clouds
1:00 PM 66.2 °F 48.2 °F 52% 29.92 in 6.2 mi WNW 12.7 mph - N/A   Scattered Clouds
2:00 PM 64.4 °F 46.4 °F 52% 29.89 in 6.2 mi WNW 15.0 mph - N/A   Mostly Cloudy
3:00 PM 62.6 °F 48.2 °F 59% 29.92 in 6.2 mi WNW 12.7 mph - N/A   Partly Cloudy
4:00 PM 60.8 °F 48.2 °F 63% 29.89 in 6.2 mi WNW 10.4 mph - N/A   Partly Cloudy
5:00 PM 60.8 °F 51.8 °F 72% 29.89 in 6.2 mi WNW 8.1 mph - N/A   Partly Cloudy
6:00 PM 62.6 °F 50.0 °F 63% 29.89 in 6.2 mi WNW 8.1 mph - N/A   Partly Cloudy
7:00 PM 60.8 °F 50.0 °F 68% 29.89 in 6.2 mi WNW 5.8 mph - N/A   Partly Cloudy
8:00 PM 57.2 °F 48.2 °F 72% 29.92 in 6.2 mi WNW 8.1 mph - N/A   Partly Cloudy
9:00 PM 55.4 °F 50.0 °F 82% 29.92 in 6.2 mi WNW 6.9 mph - N/A   Partly Cloudy
10:00 PM 55.4 °F 50.0 °F 82% 29.95 in 6.2 mi North 2.3 mph - N/A   Partly Cloudy
11:00 PM 53.6 °F 50.0 °F 88% 29.95 in 6.2 mi North 3.5 mph - N/A   Partly Cloudy